User: anonymous   Login
Location: Fort Wayne
(41.1310°N, 85.1290°W)
Time: 06:13:04
(UTC-04:00)
Language:

Iridium 37 - Orbit

View from above orbital plane
View from above orbital plane
View from above satellite
View from above satellite

Ground track
Ground track

The orbit data is extracted from the following two-line orbital elements,

1 24968U 97056D   16270.52436989 -.00000029  00000-0 -17273-4 0  9995
2 24968  86.3933  69.0999 0001917  88.2583 271.8832 14.34213426994741
Epoch (UTC): 26 September 2016 12:35:05
Eccentricity: 0.0001917
inclination: 86.3933°
perigee height: 776 km
apogee height: 779 km
right ascension of ascending node: 69.0999°
argument of perigee: 88.2583°
revolutions per day: 14.34213426
mean anomaly at epoch: 271.8832°
orbit number at epoch: 99474

The dashed part of the orbit path shows where the satellite is in the earth's shadow,  

DLR